Time,TemperatureF,DewpointF,PressureIn,WindDirection,WindDirectionDegrees,WindSpeedMPH,WindSpeedGustMPH,Humidity,HourlyPrecipIn,Conditions,Clouds,dailyrainin,SoftwareType,DateUTC
2013-02-04 00:02:00,46.0,26.0,29.82,NNW,332,2.0,3.0,46,0.00,,,0.00,,2013-02-04 07:02:00,
2013-02-04 00:11:00,45.0,26.0,29.82,North,0,2.0,3.0,47,0.00,,,0.00,,2013-02-04 07:11:00,
2013-02-04 00:21:00,45.0,26.0,29.82,North,0,2.0,3.0,47,0.00,,,0.00,,2013-02-04 07:21:00,
2013-02-04 00:31:00,45.0,27.0,29.82,NNW,334,3.0,4.0,48,0.00,,,0.00,,2013-02-04 07:31:00,
2013-02-04 00:42:00,45.0,27.0,29.82,NNW,334,3.0,4.0,48,0.00,,,0.00,,2013-02-04 07:42:00,
2013-02-04 00:52:00,44.0,26.0,29.82,NNW,331,3.0,5.0,49,0.00,,,0.00,,2013-02-04 07:52:00,
2013-02-04 01:01:00,44.0,27.0,29.82,NW,314,5.0,9.0,50,0.00,,,0.00,,2013-02-04 08:01:00,
2013-02-04 01:11:00,44.0,27.0,29.82,NW,314,5.0,9.0,50,0.00,,,0.00,,2013-02-04 08:11:00,
2013-02-04 01:21:00,44.0,27.0,29.82,North,354,4.0,8.0,51,0.00,,,0.00,,2013-02-04 08:21:00,
2013-02-04 01:31:00,43.0,27.0,29.82,NNW,343,5.0,6.0,52,0.00,,,0.00,,2013-02-04 08:31:00,
2013-02-04 01:42:00,43.0,27.0,29.82,NNW,343,5.0,6.0,52,0.00,,,0.00,,2013-02-04 08:42:00,
2013-02-04 01:52:00,43.0,28.0,29.82,North,349,3.0,9.0,54,0.00,,,0.00,,2013-02-04 08:52:00,
2013-02-04 02:02:00,42.0,27.0,29.83,North,353,2.0,9.0,55,0.00,,,0.00,,2013-02-04 09:02:00,
2013-02-04 02:11:00,41.0,26.0,29.83,North,8,2.0,3.0,55,0.00,,,0.00,,2013-02-04 09:11:00,
2013-02-04 02:21:00,41.0,26.0,29.83,North,8,2.0,3.0,55,0.00,,,0.00,,2013-02-04 09:21:00,
2013-02-04 02:31:00,40.0,26.0,29.82,NNW,331,1.0,5.0,58,0.00,,,0.00,,2013-02-04 09:31:00,
2013-02-04 02:41:00,40.0,26.0,29.82,NNW,331,1.0,5.0,58,0.00,,,0.00,,2013-02-04 09:41:00,
2013-02-04 02:51:00,40.0,26.0,29.83,NNE,15,4.0,8.0,58,0.00,,,0.00,,2013-02-04 09:51:00,
2013-02-04 03:01:00,40.0,26.0,29.83,NNE,30,2.0,7.0,58,0.00,,,0.00,,2013-02-04 10:01:00,
2013-02-04 03:11:00,40.0,26.0,29.83,NNE,30,2.0,7.0,58,0.00,,,0.00,,2013-02-04 10:11:00,
2013-02-04 03:21:00,40.0,26.0,29.84,NW,320,3.0,8.0,58,0.00,,,0.00,,2013-02-04 10:21:00,
2013-02-04 03:32:00,40.0,27.0,29.83,NNW,337,3.0,6.0,60,0.00,,,0.00,,2013-02-04 10:32:00,
2013-02-04 03:41:00,40.0,27.0,29.83,NNW,337,3.0,6.0,60,0.00,,,0.00,,2013-02-04 10:41:00,
2013-02-04 03:52:00,39.0,27.0,29.83,NW,323,2.0,6.0,61,0.00,,,0.00,,2013-02-04 10:52:00,
2013-02-04 04:01:00,39.0,27.0,29.83,NNW,331,3.0,6.0,62,0.00,,,0.00,,2013-02-04 11:01:00,
2013-02-04 04:11:00,39.0,27.0,29.83,NNW,331,3.0,6.0,62,0.00,,,0.00,,2013-02-04 11:11:00,
2013-02-04 04:22:00,38.0,26.0,29.83,North,1,3.0,4.0,62,0.00,,,0.00,,2013-02-04 11:22:00,
2013-02-04 04:32:00,38.0,26.0,29.84,NNE,17,1.0,4.0,62,0.00,,,0.00,,2013-02-04 11:32:00,
2013-02-04 04:42:00,38.0,26.0,29.84,NNE,17,1.0,4.0,62,0.00,,,0.00,,2013-02-04 11:42:00,
2013-02-04 04:52:00,38.0,26.0,29.84,North,353,3.0,5.0,62,0.00,,,0.00,,2013-02-04 11:52:00,
2013-02-04 05:02:00,37.0,26.0,29.85,North,5,3.0,5.0,63,0.00,,,0.00,,2013-02-04 12:02:00,
2013-02-04 05:12:00,37.0,26.0,29.85,North,5,3.0,5.0,63,0.00,,,0.00,,2013-02-04 12:12:00,
2013-02-04 05:22:00,38.0,27.0,29.85,NNW,338,4.0,5.0,65,0.00,,,0.00,,2013-02-04 12:22:00,
2013-02-04 05:32:00,38.0,27.0,29.86,North,351,3.0,10.0,64,0.00,,,0.00,,2013-02-04 12:32:00,
2013-02-04 05:42:00,38.0,27.0,29.86,North,351,3.0,10.0,64,0.00,,,0.00,,2013-02-04 12:42:00,
2013-02-04 05:53:00,38.0,27.0,29.86,NNW,340,4.0,5.0,64,0.00,,,0.00,,2013-02-04 12:53:00,
2013-02-04 06:02:00,37.0,26.0,29.87,NNW,332,3.0,5.0,65,0.00,,,0.00,,2013-02-04 13:02:00,
2013-02-04 06:12:00,37.0,27.0,29.87,NNW,343,4.0,6.0,67,0.00,,,0.00,,2013-02-04 13:12:00,
2013-02-04 06:21:00,37.0,27.0,29.87,NNW,343,4.0,6.0,67,0.00,,,0.00,,2013-02-04 13:21:00,
2013-02-04 06:33:00,37.0,27.0,29.87,NNW,327,2.0,6.0,67,0.00,,,0.00,,2013-02-04 13:33:00,
2013-02-04 06:42:00,37.0,27.0,29.87,NNW,327,2.0,6.0,67,0.00,,,0.00,,2013-02-04 13:42:00,
2013-02-04 06:52:00,37.0,27.0,29.88,ESE,113,1.0,3.0,66,0.00,,,0.00,,2013-02-04 13:52:00,
2013-02-04 07:03:00,36.0,25.0,29.88,ESE,113,1.0,3.0,65,0.00,,,0.00,,2013-02-04 14:03:00,
2013-02-04 07:11:00,36.0,25.0,29.88,ESE,113,1.0,3.0,65,0.00,,,0.00,,2013-02-04 14:11:00,
2013-02-04 07:22:00,34.0,23.0,29.88,East,92,1.0,2.0,65,0.00,,,0.00,,2013-02-04 14:22:00,
2013-02-04 07:32:00,34.0,23.0,29.88,East,90,1.0,1.0,65,0.00,,,0.00,,2013-02-04 14:32:00,
2013-02-04 07:42:00,34.0,23.0,29.88,East,90,1.0,1.0,65,0.00,,,0.00,,2013-02-04 14:42:00,
2013-02-04 07:52:00,33.0,23.0,29.88,ESE,113,1.0,2.0,66,0.00,,,0.00,,2013-02-04 14:52:00,
2013-02-04 08:03:00,33.0,23.0,29.90,East,90,0.0,0.0,67,0.00,,,0.00,,2013-02-04 15:03:00,
2013-02-04 08:12:00,33.0,23.0,29.90,East,90,0.0,0.0,67,0.00,,,0.00,,2013-02-04 15:12:00,
2013-02-04 08:23:00,34.0,25.0,29.89,NNW,338,1.0,1.0,68,0.00,,,0.00,,2013-02-04 15:23:00,
2013-02-04 08:33:00,36.0,26.0,29.88,NW,321,1.0,2.0,67,0.00,,,0.00,,2013-02-04 15:33:00,
2013-02-04 08:43:00,36.0,26.0,29.88,NW,321,1.0,2.0,67,0.00,,,0.00,,2013-02-04 15:43:00,
2013-02-04 08:52:00,38.0,28.0,29.88,NW,323,2.0,2.0,66,0.00,,,0.00,,2013-02-04 15:52:00,
2013-02-04 09:02:00,39.0,27.0,29.88,NW,313,2.0,5.0,63,0.00,,,0.00,,2013-02-04 16:02:00,
2013-02-04 09:11:00,39.0,27.0,29.88,NW,313,2.0,5.0,63,0.00,,,0.00,,2013-02-04 16:11:00,
2013-02-04 09:22:00,40.0,28.0,29.89,West,266,1.0,4.0,63,0.00,,,0.00,,2013-02-04 16:22:00,
2013-02-04 09:32:00,41.0,29.0,29.89,WNW,299,3.0,6.0,61,0.00,,,0.00,,2013-02-04 16:32:00,
2013-02-04 09:42:00,41.0,29.0,29.89,WNW,299,3.0,6.0,61,0.00,,,0.00,,2013-02-04 16:42:00,
2013-02-04 09:52:00,41.0,28.0,29.89,WNW,303,4.0,6.0,59,0.00,,,0.00,,2013-02-04 16:52:00,
2013-02-04 10:02:00,42.0,28.0,29.92,NW,320,3.0,7.0,58,0.00,,,0.00,,2013-02-04 17:02:00,
2013-02-04 10:11:00,43.0,28.0,29.91,North,3,3.0,5.0,56,0.00,,,0.00,,2013-02-04 17:11:00,
2013-02-04 10:21:00,43.0,28.0,29.91,North,3,3.0,5.0,56,0.00,,,0.00,,2013-02-04 17:21:00,
2013-02-04 10:32:00,44.0,29.0,29.91,NNW,331,4.0,5.0,55,0.00,,,0.00,,2013-02-04 17:32:00,
2013-02-04 10:42:00,44.0,28.0,29.91,NW,322,5.0,8.0,53,0.00,,,0.00,,2013-02-04 17:42:00,
2013-02-04 10:52:00,44.0,28.0,29.91,NW,322,5.0,8.0,53,0.00,,,0.00,,2013-02-04 17:52:00,
2013-02-04 11:03:00,45.0,28.0,29.92,NNW,341,3.0,7.0,52,0.00,,,0.00,,2013-02-04 18:03:00,
2013-02-04 11:11:00,45.0,28.0,29.92,NNW,341,3.0,7.0,52,0.00,,,0.00,,2013-02-04 18:11:00,
2013-02-04 11:22:00,47.0,29.0,29.91,NNW,348,5.0,6.0,49,0.00,,,0.00,,2013-02-04 18:22:00,
2013-02-04 11:31:00,47.0,29.0,29.90,NNW,327,4.0,8.0,49,0.00,,,0.00,,2013-02-04 18:31:00,
2013-02-04 11:41:00,47.0,29.0,29.90,NNW,327,4.0,8.0,49,0.00,,,0.00,,2013-02-04 18:41:00,
2013-02-04 11:52:00,48.0,29.0,29.89,North,7,2.0,7.0,47,0.00,,,0.00,,2013-02-04 18:52:00,
2013-02-04 12:02:00,49.0,28.0,29.89,North,357,3.0,6.0,44,0.00,,,0.00,,2013-02-04 19:02:00,
2013-02-04 12:11:00,49.0,28.0,29.89,North,357,3.0,6.0,44,0.00,,,0.00,,2013-02-04 19:11:00,
2013-02-04 12:22:00,50.0,28.0,29.89,North,4,4.0,9.0,43,0.00,,,0.00,,2013-02-04 19:22:00,
2013-02-04 12:31:00,50.0,28.0,29.87,NNW,338,4.0,10.0,42,0.00,,,0.00,,2013-02-04 19:31:00,
2013-02-04 12:41:00,50.0,28.0,29.87,NNW,338,4.0,10.0,42,0.00,,,0.00,,2013-02-04 19:41:00,
2013-02-04 12:51:00,51.0,28.0,29.87,NE,35,2.0,8.0,41,0.00,,,0.00,,2013-02-04 19:51:00,
2013-02-04 13:02:00,52.0,27.0,29.86,NW,308,3.0,8.0,38,0.00,,,0.00,,2013-02-04 20:02:00,
2013-02-04 13:12:00,52.0,27.0,29.86,NW,308,3.0,8.0,38,0.00,,,0.00,,2013-02-04 20:12:00,
2013-02-04 13:21:00,53.0,27.0,29.85,NW,310,4.0,7.0,36,0.00,,,0.00,,2013-02-04 20:21:00,
2013-02-04 13:32:00,53.0,25.0,29.84,North,349,4.0,8.0,34,0.00,,,0.00,,2013-02-04 20:32:00,
2013-02-04 13:42:00,53.0,25.0,29.84,North,349,4.0,8.0,34,0.00,,,0.00,,2013-02-04 20:42:00,
2013-02-04 13:52:00,54.0,25.0,29.83,NNW,336,3.0,7.0,32,0.00,,,0.00,,2013-02-04 20:52:00,
2013-02-04 14:02:00,54.0,26.0,29.83,WNW,300,2.0,7.0,33,0.00,,,0.00,,2013-02-04 21:02:00,
2013-02-04 14:11:00,54.0,26.0,29.83,WNW,300,2.0,7.0,33,0.00,,,0.00,,2013-02-04 21:11:00,
2013-02-04 14:22:00,55.0,25.0,29.82,NW,326,4.0,8.0,31,0.00,,,0.00,,2013-02-04 21:22:00,
2013-02-04 14:31:00,55.0,25.0,29.82,NNW,329,5.0,7.0,31,0.00,,,0.00,,2013-02-04 21:31:00,
2013-02-04 14:42:00,55.0,25.0,29.82,NNW,329,5.0,7.0,31,0.00,,,0.00,,2013-02-04 21:42:00,
2013-02-04 14:52:00,55.0,26.0,29.81,West,259,3.0,6.0,32,0.00,,,0.00,,2013-02-04 21:52:00,
2013-02-04 15:02:00,56.0,27.0,29.81,North,355,1.0,5.0,32,0.00,,,0.00,,2013-02-04 22:02:00,
2013-02-04 15:12:00,56.0,27.0,29.81,North,355,1.0,5.0,32,0.00,,,0.00,,2013-02-04 22:12:00,
2013-02-04 15:21:00,56.0,25.0,29.81,WNW,287,4.0,8.0,30,0.00,,,0.00,,2013-02-04 22:21:00,
2013-02-04 15:32:00,56.0,26.0,29.81,North,354,3.0,6.0,31,0.00,,,0.00,,2013-02-04 22:32:00,
2013-02-04 15:42:00,56.0,26.0,29.81,North,354,3.0,6.0,31,0.00,,,0.00,,2013-02-04 22:42:00,
2013-02-04 15:52:00,56.0,27.0,29.80,WSW,245,3.0,5.0,32,0.00,,,0.00,,2013-02-04 22:52:00,
2013-02-04 16:01:00,57.0,27.0,29.80,West,265,2.0,7.0,31,0.00,,,0.00,,2013-02-04 23:01:00,
2013-02-04 16:11:00,57.0,27.0,29.80,West,265,2.0,7.0,31,0.00,,,0.00,,2013-02-04 23:11:00,
2013-02-04 16:21:00,56.0,25.0,29.80,WSW,247,3.0,5.0,30,0.00,,,0.00,,2013-02-04 23:21:00,
2013-02-04 16:32:00,56.0,24.0,29.80,NW,310,2.0,6.0,29,0.00,,,0.00,,2013-02-04 23:32:00,
2013-02-04 16:42:00,56.0,24.0,29.80,NW,310,2.0,6.0,29,0.00,,,0.00,,2013-02-04 23:42:00,
2013-02-04 16:52:00,56.0,24.0,29.80,NW,321,2.0,6.0,29,0.00,,,0.00,,2013-02-04 23:52:00,
2013-02-04 17:01:00,56.0,23.0,29.80,NW,325,6.0,10.0,27,0.00,,,0.00,,2013-02-05 00:01:00,
2013-02-04 17:11:00,56.0,23.0,29.80,NW,325,6.0,10.0,27,0.00,,,0.00,,2013-02-05 00:11:00,
2013-02-04 17:21:00,55.0,22.0,29.80,NNW,347,8.0,11.0,27,0.00,,,0.00,,2013-02-05 00:21:00,
2013-02-04 17:31:00,54.0,22.0,29.80,North,356,5.0,10.0,28,0.00,,,0.00,,2013-02-05 00:31:00,
2013-02-04 17:42:00,54.0,22.0,29.80,North,356,5.0,10.0,28,0.00,,,0.00,,2013-02-05 00:42:00,
2013-02-04 17:52:00,54.0,22.0,29.80,NNW,336,7.0,8.0,28,0.00,,,0.00,,2013-02-05 00:52:00,
2013-02-04 18:01:00,53.0,22.0,29.81,NNW,334,5.0,11.0,29,0.00,,,0.00,,2013-02-05 01:01:00,
2013-02-04 18:11:00,53.0,22.0,29.81,NNW,334,5.0,11.0,29,0.00,,,0.00,,2013-02-05 01:11:00,
2013-02-04 18:22:00,52.0,24.0,29.81,North,5,4.0,6.0,33,0.00,,,0.00,,2013-02-05 01:22:00,
2013-02-04 18:32:00,51.0,23.0,29.82,North,358,4.0,9.0,33,0.00,,,0.00,,2013-02-05 01:32:00,
2013-02-04 18:42:00,51.0,23.0,29.82,North,358,4.0,9.0,33,0.00,,,0.00,,2013-02-05 01:42:00,
2013-02-04 18:52:00,50.0,22.0,29.83,NNW,344,4.0,8.0,33,0.00,,,0.00,,2013-02-05 01:52:00,
2013-02-04 19:01:00,50.0,23.0,29.83,North,356,4.0,9.0,35,0.00,,,0.00,,2013-02-05 02:01:00,
2013-02-04 19:11:00,50.0,23.0,29.83,North,356,4.0,9.0,35,0.00,,,0.00,,2013-02-05 02:11:00,
2013-02-04 19:22:00,49.0,23.0,29.84,North,2,5.0,6.0,36,0.00,,,0.00,,2013-02-05 02:22:00,
2013-02-04 19:31:00,48.0,23.0,29.84,NNE,25,2.0,5.0,37,0.00,,,0.00,,2013-02-05 02:31:00,
2013-02-04 19:41:00,48.0,23.0,29.84,NNE,25,2.0,5.0,37,0.00,,,0.00,,2013-02-05 02:41:00,
2013-02-04 19:52:00,47.0,21.0,29.84,NNE,16,3.0,5.0,36,0.00,,,0.00,,2013-02-05 02:52:00,
2013-02-04 20:02:00,46.0,21.0,29.84,North,4,4.0,7.0,37,0.00,,,0.00,,2013-02-05 03:02:00,
2013-02-04 20:11:00,46.0,21.0,29.84,North,4,4.0,7.0,37,0.00,,,0.00,,2013-02-05 03:11:00,
2013-02-04 20:21:00,46.0,21.0,29.84,NNE,22,3.0,6.0,36,0.00,,,0.00,,2013-02-05 03:21:00,
2013-02-04 20:31:00,46.0,21.0,29.84,NNE,13,5.0,7.0,37,0.00,,,0.00,,2013-02-05 03:31:00,
2013-02-04 20:42:00,46.0,21.0,29.84,NNE,13,5.0,7.0,37,0.00,,,0.00,,2013-02-05 03:42:00,
2013-02-04 20:52:00,45.0,20.0,29.85,NNW,343,3.0,7.0,37,0.00,,,0.00,,2013-02-05 03:52:00,
2013-02-04 21:01:00,46.0,21.0,29.85,NW,321,6.0,8.0,37,0.00,,,0.00,,2013-02-05 04:01:00,
2013-02-04 21:11:00,46.0,21.0,29.85,NW,321,6.0,8.0,37,0.00,,,0.00,,2013-02-05 04:11:00,
2013-02-04 21:21:00,46.0,22.0,29.85,NW,326,5.0,10.0,38,0.00,,,0.00,,2013-02-05 04:21:00,
2013-02-04 21:32:00,45.0,22.0,29.85,NNW,335,6.0,8.0,39,0.00,,,0.00,,2013-02-05 04:32:00,
2013-02-04 21:42:00,45.0,22.0,29.85,NNW,335,6.0,8.0,39,0.00,,,0.00,,2013-02-05 04:42:00,
2013-02-04 21:52:00,45.0,22.0,29.85,NNW,334,3.0,7.0,40,0.00,,,0.00,,2013-02-05 04:52:00,
2013-02-04 22:02:00,44.0,22.0,29.86,NNW,340,5.0,8.0,42,0.00,,,0.00,,2013-02-05 05:02:00,
2013-02-04 22:11:00,44.0,22.0,29.86,NNW,340,5.0,8.0,42,0.00,,,0.00,,2013-02-05 05:11:00,
2013-02-04 22:21:00,44.0,22.0,29.86,NW,316,6.0,8.0,42,0.00,,,0.00,,2013-02-05 05:21:00,
2013-02-04 22:32:00,43.0,22.0,29.85,NNW,342,2.0,5.0,42,0.00,,,0.00,,2013-02-05 05:32:00,
2013-02-04 22:42:00,43.0,22.0,29.85,NNW,342,2.0,5.0,42,0.00,,,0.00,,2013-02-05 05:42:00,
2013-02-04 22:52:00,43.0,22.0,29.86,NNW,329,2.0,5.0,43,0.00,,,0.00,,2013-02-05 05:52:00,
2013-02-04 23:01:00,42.0,22.0,29.86,NW,322,5.0,6.0,44,0.00,,,0.00,,2013-02-05 06:01:00,
2013-02-04 23:11:00,42.0,22.0,29.86,NW,322,5.0,6.0,44,0.00,,,0.00,,2013-02-05 06:11:00,
2013-02-04 23:21:00,42.0,21.0,29.86,NNW,335,5.0,6.0,43,0.00,,,0.00,,2013-02-05 06:21:00,
2013-02-04 23:32:00,43.0,22.0,29.85,NNW,341,3.0,7.0,43,0.00,,,0.00,,2013-02-05 06:32:00,
2013-02-04 23:42:00,43.0,22.0,29.85,NNW,341,3.0,7.0,43,0.00,,,0.00,,2013-02-05 06:42:00,
2013-02-04 23:52:00,42.0,21.0,29.85,NNE,13,1.0,3.0,43,0.00,,,0.00,,2013-02-05 06:52:00,